{"data":{"norad_id":56883,"epoch":"2026-05-25T00:01:31.973664Z","epoch_age_seconds":71604,"freshness":"FRESH","line1":"1 56883U 23083H   26145.00106451  .00002433  00000+0  97896-4 0  9995","line2":"2 56883  43.0031  14.0226 0000889 249.7470 110.3286 15.27580982163307","mean_motion":15.27580982,"eccentricity":8.89e-5,"inclination_deg":43.0031,"raan_deg":14.0226,"arg_perigee_deg":249.747,"mean_anomaly_deg":110.3286,"bstar":9.7896e-5,"rev_number":16330,"period_min":94.266688114608,"perigee_km":482.43619639743,"apogee_km":483.65611476249,"semimajor_km":6861.18315558,"source":"CELESTRAK","updated_at":"2026-05-25T13:38:18.167907Z"}}